Fort Meade, MD

1:40 AM EDT on March 29, 2017 (GMT -0400)
Tipton

Weather History for KFME - January, 2013

Change the Weather History Date:

Saturday, January 19, 2013

  Actual Average (KBWI) Record (KBWI)
Temperature  
Mean Temperature 38 °F -  
Max Temperature 53 °F 39 °F 69 °F (1951)
Min Temperature 24 °F 23 °F -5 °F (1994)
Degree Days  
Heating Degree Days 26    
Moisture  
Dew Point 24 °F    
Average Humidity 58    
Maximum Humidity 93    
Minimum Humidity 30    
Precipitation  
Precipitation 0.00 in - - ()
Sea Level Pressure  
Sea Level Pressure 30.25 in    
Wind  
Wind Speed 7 mph (SSW)    
Max Wind Speed 16 mph    
Max Gust Speed 26 mph    
Visibility 10 miles    
Events      
Averages and records for this station are not official NWS values.
T = Trace of Precipitation, MM = Missing Value Source: NWS Daily Summary

Daily Weather History Graph

Daily Weather History Graph

Search for Another Location

Airport or City:

Trip Planner

Search our weather history database for the weather conditions in past years. The results will help you decide how hot, cold, wet, or windy it might be!

Date:

Astronomy

Jan. 19, 2013 Rise Set
Actual Time 7:22 AM EST 5:13 PM EST
Civil Twilight 6:53 AM EST 5:42 PM EST
Nautical Twilight 6:21 AM EST 6:15 PM EST
Astronomical Twilight 5:49 AM EST 6:46 PM EST
Moon 11:37 AM EST (1/19) 12:55 AM EST (1/19)
Length of Visible Light 10h 48m
Length of Day
9h 50m
First Quarter, 57% of the Moon is Illuminated
Jan 19
First Quarter
Jan 26
Full
Feb 3
Last Quarter
Feb 10
New
Feb 17
First Quarter

Hourly Weather History & Observations

Time (EST) Temp. Windchill Dew Point Humidity Pressure Visibility Wind Dir Wind Speed Gust Speed Precip Events Conditions
12:39 AM 26.6 °F 21.2 °F 19.4 °F 74% 30.43 in 10.0 mi South 4.6 mph - N/A   Clear
1:00 AM 26.6 °F 22.6 °F 21.2 °F 80% 30.42 in 10.0 mi WSW 3.5 mph - N/A   Clear
1:21 AM 26.6 °F 22.6 °F 21.2 °F 80% 30.42 in 10.0 mi South 3.5 mph - N/A   Clear
1:42 AM 26.6 °F - 21.2 °F 80% 30.42 in 10.0 mi Calm Calm - N/A   Clear
2:06 AM 26.6 °F - 21.2 °F 80% 30.42 in 10.0 mi Calm Calm - N/A   Clear
2:27 AM 26.6 °F - 21.2 °F 80% 30.42 in 10.0 mi Calm Calm - N/A   Clear
2:48 AM 24.8 °F 20.5 °F 21.2 °F 86% 30.42 in 10.0 mi SSW 3.5 mph - N/A   Clear
3:09 AM 24.8 °F 19.1 °F 23.0 °F 93% 30.42 in 10.0 mi South 4.6 mph - N/A   Clear
3:30 AM 24.8 °F 19.1 °F 23.0 °F 93% 30.41 in 10.0 mi SSW 4.6 mph - N/A   Clear
3:51 AM 24.8 °F 16.9 °F 23.0 °F 93% 30.40 in 10.0 mi SSW 6.9 mph - N/A   Clear
4:12 AM 26.6 °F 16.8 °F 23.0 °F 86% 30.39 in 10.0 mi SSW 10.4 mph - N/A   Clear
4:33 AM 28.4 °F 20.4 °F 24.8 °F 86% 30.38 in 10.0 mi SW 8.1 mph - N/A   Clear
4:54 AM 30.2 °F 20.8 °F 24.8 °F 80% 30.38 in 10.0 mi SSW 11.5 mph 16.1 mph N/A   Clear
5:18 AM 32.0 °F 24.2 °F 23.0 °F 69% 30.38 in 10.0 mi SSW 9.2 mph - N/A   Clear
5:39 AM 32.0 °F 23.6 °F 23.0 °F 69% 30.37 in 10.0 mi SSW 10.4 mph - N/A   Clear
6:00 AM 32.0 °F 24.2 °F 23.0 °F 69% 30.37 in 10.0 mi SSW 9.2 mph 17.3 mph N/A   Clear
6:21 AM 32.0 °F 24.2 °F 23.0 °F 69% 30.37 in 10.0 mi SSW 9.2 mph - N/A   Clear
6:42 AM 32.0 °F 24.2 °F 23.0 °F 69% 30.36 in 10.0 mi SSW 9.2 mph - N/A   Clear
7:03 AM 32.0 °F 24.8 °F 23.0 °F 69% 30.36 in 10.0 mi SW 8.1 mph - N/A   Clear
7:24 AM 32.0 °F 24.2 °F 23.0 °F 69% 30.36 in 10.0 mi SSW 9.2 mph 18.4 mph N/A   Clear
7:45 AM 32.0 °F 23.6 °F 23.0 °F 69% 30.36 in 10.0 mi SW 10.4 mph - N/A   Clear
8:06 AM 32.0 °F 23.6 °F 23.0 °F 69% 30.36 in 10.0 mi SW 10.4 mph - N/A   Clear
8:27 AM 33.8 °F 25.8 °F 23.0 °F 65% 30.36 in 10.0 mi SSW 10.4 mph 18.4 mph N/A   Clear
8:48 AM 33.8 °F 24.8 °F 23.0 °F 65% 30.36 in 10.0 mi SW 12.7 mph 18.4 mph N/A   Clear
9:12 AM 35.6 °F 27.1 °F 24.8 °F 65% 30.36 in 10.0 mi SW 12.7 mph 17.3 mph N/A   Clear
9:54 AM 39.2 °F 31.2 °F 24.8 °F 56% 30.36 in 10.0 mi SW 13.8 mph 20.7 mph N/A   Clear
10:15 AM 41.0 °F 32.8 °F 24.8 °F 53% 30.35 in 10.0 mi SW 16.1 mph 21.9 mph N/A   Clear
10:36 AM 41.0 °F 33.9 °F 26.6 °F 57% 30.34 in 10.0 mi SW 12.7 mph - N/A   Clear
10:57 AM 42.8 °F 36.2 °F 24.8 °F 49% 30.32 in 10.0 mi SW 12.7 mph 26.5 mph N/A   Clear
11:18 AM 44.6 °F 38.8 °F 26.6 °F 49% 30.31 in 10.0 mi SW 11.5 mph 17.3 mph N/A   Clear
11:39 AM 44.6 °F 39.2 °F 26.6 °F 49% 30.29 in 10.0 mi SW 10.4 mph 16.1 mph N/A   Clear
12:00 PM 46.4 °F 42.4 °F 26.6 °F 46% 30.27 in 10.0 mi SSW 8.1 mph 16.1 mph N/A   Clear
12:21 PM 46.4 °F 41.9 °F 26.6 °F 46% 30.25 in 10.0 mi SW 9.2 mph - N/A   Clear
12:42 PM 48.2 °F - 24.8 °F 40% 30.24 in 10.0 mi SW 13.8 mph 18.4 mph N/A   Clear
1:03 PM 50.0 °F - 24.8 °F 37% 30.22 in 10.0 mi SW 10.4 mph 17.3 mph N/A   Clear
2:09 PM 53.6 °F - 26.6 °F 35% 30.18 in 10.0 mi SSW 9.2 mph 17.3 mph N/A   Clear
2:30 PM 53.6 °F - 24.8 °F 33% 30.17 in 10.0 mi SW 10.4 mph - N/A   Clear
2:51 PM 53.6 °F - 24.8 °F 33% 30.16 in 10.0 mi SSW 10.4 mph - N/A   Clear
3:12 PM 53.6 °F - 23.0 °F 30% 30.14 in 10.0 mi SW 10.4 mph 17.3 mph N/A   Clear
3:33 PM 53.6 °F - 24.8 °F 33% 30.13 in 10.0 mi South 9.2 mph - N/A   Clear
3:54 PM 51.8 °F - 24.8 °F 35% 30.13 in 10.0 mi South 8.1 mph - N/A   Clear
4:15 PM 51.8 °F - 24.8 °F 35% 30.12 in 10.0 mi South 6.9 mph - N/A   Clear
4:36 PM 51.8 °F - 24.8 °F 35% 30.12 in 10.0 mi SSW 8.1 mph - N/A   Clear
4:57 PM 50.0 °F - 24.8 °F 37% 30.11 in 10.0 mi SSW 8.1 mph - N/A   Clear
5:21 PM 48.2 °F - 24.8 °F 40% 30.11 in 10.0 mi SSW 9.2 mph - N/A   Clear
5:42 PM 46.4 °F 42.9 °F 24.8 °F 43% 30.11 in 10.0 mi SSW 6.9 mph - N/A   Clear
6:03 PM 44.6 °F 40.7 °F 26.6 °F 49% 30.11 in 10.0 mi SSW 6.9 mph - N/A   Clear
6:24 PM 42.8 °F 39.3 °F 26.6 °F 53% 30.10 in 10.0 mi SSW 5.8 mph - N/A   Clear
6:45 PM 42.8 °F 38.6 °F 26.6 °F 53% 30.10 in 10.0 mi SSW 6.9 mph - N/A   Clear
7:27 PM 44.6 °F 39.7 °F 24.8 °F 46% 30.10 in 10.0 mi SSW 9.2 mph - N/A   Clear
7:48 PM 44.6 °F 39.2 °F 23.0 °F 43% 30.10 in 10.0 mi SSW 10.4 mph - N/A   Clear
8:30 PM 44.6 °F 39.2 °F 24.8 °F 46% 30.08 in 10.0 mi SW 10.4 mph - N/A   Clear
8:51 PM 44.6 °F 38.8 °F 24.8 °F 46% 30.07 in 10.0 mi SSW 11.5 mph 19.6 mph N/A   Clear
9:12 PM 44.6 °F 39.2 °F 26.6 °F 49% 30.06 in 10.0 mi SSW 10.4 mph 21.9 mph N/A   Clear
9:36 PM 44.6 °F 38.4 °F 26.6 °F 49% 30.06 in 10.0 mi SSW 12.7 mph 20.7 mph N/A   Clear
9:57 PM 44.6 °F 39.2 °F 26.6 °F 49% 30.06 in 10.0 mi SW 10.4 mph 19.6 mph N/A   Clear
10:18 PM 44.6 °F 38.8 °F 26.6 °F 49% 30.06 in 10.0 mi SW 11.5 mph 16.1 mph N/A   Clear
10:39 PM 42.8 °F 36.6 °F 26.6 °F 53% 30.04 in 10.0 mi SW 11.5 mph 18.4 mph N/A   Clear
11:00 PM 42.8 °F 36.6 °F 26.6 °F 53% 30.03 in 10.0 mi SW 11.5 mph - N/A   Clear
11:21 PM 42.8 °F 36.6 °F 26.6 °F 53% 30.01 in 10.0 mi SW 11.5 mph - N/A   Clear